Location: Shepherdstown, WV
(39.4326°N, 77.8042°W)
Time: 01:24:51
(UTC-04:00)

X-37B - Pass Details

Date: 02 July 2021
Orbit: 383 x 392 km, 45.0° (Epoch: 01 July)

Event Time Altitude Azimuth Distance (km) Brightness Sun altitude
Rises 23:34:27 0° 291° (WNW) 2,256 5.1 -23.3°
Reaches altitude 10° 23:36:35 10° 284° (WNW) 1,400 3.9 -23.5°
Enters shadow 23:37:33 18° 276° (W) 1,030 3.0 -23.6°
